sat.trackr.live / text

‹ back to catalog

STARLINK-36059

NORAD 66904 · 2025-283AC

PAYLOAD ACTIVE UNKNOWN

§ Identity

Operator
Country
US
Launch date
2025-12-04
Launch site
AFWTR
Launch vehicle
Mass (kg)
RCS (m²)

Purposes: comms

External: N2YO · Heavens-Above · Gunter

§ Orbital elements

Epoch: 2026-09-20T13:09:13.572864Z

Period
93.85 min
Inclination
53.1590°
Eccentricity
0.0001303
Mean motion
15.34388422 rev/d
Perigee alt
461.8 km
Apogee alt
463.6 km
Semi-major
6,840.9 km
B*
8.0508e-4
RAAN
195.8190°
Arg perigee
85.3058°
Mean anomaly
274.8094°
Rev number
4,572

§ Raw data

STARLINK-360591 66904U 25283AC  26263.54807376  .00026912  00000+0  80508-3 0  99972 66904  53.1590 195.8190 0001303  85.3058 274.8094 15.34388422 45721

JSON: /api/v1/satellites/66904 · /tle

For live sub-satellite position, see the globe view (requires WebGL).

§ Visibility from observer

Set your observer location to see the next 7 days of passes ≥ 10°. The values pass through the URL so the page stays shareable.

No JS? Fill the form by hand. The geolocation button needs JavaScript.